sat.trackr.live / text

‹ back to catalog

STARLINK-32294

NORAD 61675 · 2024-193Q

PAYLOAD ACTIVE UNKNOWN

§ Identity

Operator
Country
US
Launch date
2024-10-26
Launch site
AFETR
Launch vehicle
Mass (kg)
RCS (m²)

Purposes: comms

External: N2YO · Heavens-Above · Gunter

§ Orbital elements

Epoch: 2026-09-21T03:29:10.108896Z

Period
94.01 min
Inclination
53.1601°
Eccentricity
0.0001248
Mean motion
15.31704783 rev/d
Perigee alt
469.9 km
Apogee alt
471.6 km
Semi-major
6,848.9 km
B*
3.7796e-5
RAAN
261.5831°
Arg perigee
87.8153°
Mean anomaly
272.2991°
Rev number
10,647

§ Raw data

STARLINK-322941 61675U 24193Q   26264.14525589  .00000808  00000+0  37796-4 0  99942 61675  53.1601 261.5831 0001248  87.8153 272.2991 15.31704783106475

JSON: /api/v1/satellites/61675 · /tle

For live sub-satellite position, see the globe view (requires WebGL).

§ Visibility from observer

Set your observer location to see the next 7 days of passes ≥ 10°. The values pass through the URL so the page stays shareable.

No JS? Fill the form by hand. The geolocation button needs JavaScript.